| time (UTC) | temp C | wind direction | speed KPH | gust KPH | rain 1hr cm | rain 24hr cm | rain mn cm | humidity % | barometer mb |
| 20260831154446 | 19 | 248 | 3.2 | 3.2 | 0.00 | 0.00 | 0.00 | 56 | 1011.0 |
| 20260831153944 | 19 | 283 | 3.2 | 3.2 | 0.00 | 0.00 | 0.00 | 56 | 1011.1 |
| 20260831153440 | 19 | 231 | 3.2 | 3.2 | 0.00 | 0.00 | 0.00 | 57 | 1011.0 |
| 20260831152937 | 18 | 286 | 1.6 | 1.6 | 0.00 | 0.00 | 0.00 | 59 | 1010.8 |
| 20260831152432 | 18 | 275 | 3.2 | 3.2 | 0.00 | 0.00 | 0.00 | 61 | 1011.0 |
| 20260831151927 | 18 | 29 | 0.0 | 1.6 | 0.00 | 0.00 | 0.00 | 64 | 1010.8 |
| 20260831151426 | 18 | 303 | 1.6 | 3.2 | 0.00 | 0.00 | 0.00 | 64 | 1010.8 |
| 20260831150921 | 17 | 283 | 1.6 | 1.6 | 0.00 | 0.00 | 0.00 | 65 | 1011.0 |
| 20260831150411 | 17 | 295 | 0.0 | 1.6 | 0.00 | 0.00 | 0.00 | 66 | 1011.0 |
| 20260831145910 | 17 | 309 | 1.6 | 3.2 | 0.00 | 0.00 | 0.00 | 65 | 1010.9 |
| 20260831145406 | 18 | 311 | 1.6 | 1.6 | 0.00 | 0.00 | 0.00 | 64 | 1010.6 |
| 20260831144902 | 17 | 326 | 0.0 | 0.0 | 0.00 | 0.00 | 0.00 | 65 | 1010.8 |
| 20260831144358 | 17 | 19 | 0.0 | 0.0 | 0.00 | 0.00 | 0.00 | 65 | 1010.5 |
| 20260831143853 | 17 | 20 | 0.0 | 0.0 | 0.00 | 0.00 | 0.00 | 64 | 1010.5 |
| 20260831143348 | 17 | 20 | 0.0 | 0.0 | 0.00 | 0.00 | 0.00 | 64 | 1010.6 |
| 20260831142843 | 16 | 351 | 0.0 | 0.0 | 0.00 | 0.00 | 0.00 | 68 | 1010.4 |
| 20260831142338 | 16 | 351 | 0.0 | 0.0 | 0.00 | 0.00 | 0.00 | 69 | 1010.4 |
| 20260831141838 | 16 | 346 | 0.0 | 1.6 | 0.00 | 0.00 | 0.00 | 71 | 1010.4 |
| 20260831141333 | 16 | 37 | 0.0 | 0.0 | 0.00 | 0.00 | 0.00 | 71 | 1010.3 |
| 20260831140828 | 15 | 38 | 0.0 | 0.0 | 0.00 | 0.00 | 0.00 | 70 | 1010.4 |
| 20260831140322 | 15 | 39 | 0.0 | 0.0 | 0.00 | 0.00 | 0.00 | 70 | 1010.1 |
| 20260831135820 | 15 | 39 | 0.0 | 1.6 | 0.00 | 0.00 | 0.00 | 70 | 1010.1 |
| 20260831135316 | 15 | 39 | 0.0 | 0.0 | 0.00 | 0.00 | 0.00 | 70 | 1009.8 |
| 20260831134811 | 15 | 39 | 0.0 | 0.0 | 0.00 | 0.00 | 0.00 | 70 | 1010.0 |
| 20260831134308 | 15 | 39 | 0.0 | 0.0 | 0.00 | 0.00 | 0.00 | 70 | 1009.7 |
| 20260831133807 | 15 | 39 | 0.0 | 0.0 | 0.00 | 0.00 | 0.00 | 72 | 1009.9 |
| 20260831133306 | 15 | 39 | 0.0 | 0.0 | 0.00 | 0.00 | 0.00 | 72 | 1009.5 |
| 20260831132802 | 15 | 39 | 0.0 | 0.0 | 0.00 | 0.00 | 0.00 | 72 | 1009.5 |
| 20260831132256 | 15 | 39 | 0.0 | 0.0 | 0.00 | 0.00 | 0.00 | 71 | 1009.4 |
| 20260831131750 | 15 | 39 | 0.0 | 0.0 | 0.00 | 0.00 | 0.00 | 71 | 1009.5 |
| 20260831131247 | 15 | 39 | 0.0 | 0.0 | 0.00 | 0.00 | 0.00 | 71 | 1009.6 |
| 20260831130742 | 15 | 39 | 0.0 | 0.0 | 0.00 | 0.00 | 0.00 | 71 | 1009.7 |
| 20260831130237 | 15 | 39 | 0.0 | 0.0 | 0.00 | 0.00 | 0.00 | 71 | 1009.6 |
| 20260831125736 | 15 | 39 | 0.0 | 0.0 | 0.00 | 0.00 | 0.00 | 71 | 1009.7 |
| 20260831125232 | 15 | 39 | 0.0 | 0.0 | 0.00 | 0.00 | 0.00 | 71 | 1009.8 |
| 20260831124726 | 15 | 39 | 0.0 | 0.0 | 0.00 | 0.00 | 0.00 | 71 | 1009.6 |
| 20260831124223 | 15 | 39 | 0.0 | 0.0 | 0.00 | 0.00 | 0.00 | 71 | 1009.4 |
| 20260831123722 | 15 | 39 | 0.0 | 0.0 | 0.00 | 0.00 | 0.00 | 71 | 1009.7 |
| 20260831123221 | 15 | 39 | 0.0 | 0.0 | 0.00 | 0.00 | 0.00 | 71 | 1009.6 |
| 20260831122716 | 15 | 40 | 0.0 | 0.0 | 0.00 | 0.00 | 0.00 | 72 | 1009.5 |
| 20260831122212 | 15 | 39 | 0.0 | 0.0 | 0.00 | 0.00 | 0.00 | 71 | 1009.7 |
| 20260831121711 | 15 | 39 | 0.0 | 0.0 | 0.00 | 0.00 | 0.00 | 71 | 1009.6 |
| 20260831121208 | 15 | 39 | 0.0 | 0.0 | 0.00 | 0.00 | 0.00 | 70 | 1009.5 |
| 20260831120703 | 15 | 39 | 0.0 | 0.0 | 0.00 | 0.00 | 0.00 | 70 | 1009.4 |
| 20260831120157 | 15 | 39 | 0.0 | 0.0 | 0.00 | 0.00 | 0.00 | 70 | 1009.3 |
| 20260831115653 | 15 | 40 | 0.0 | 0.0 | 0.00 | 0.00 | 0.00 | 69 | 1009.3 |
| 20260831115149 | 15 | 40 | 0.0 | 0.0 | 0.00 | 0.00 | 0.00 | 69 | 1009.4 |
| 20260831114648 | 15 | 61 | 1.6 | 1.6 | 0.00 | 0.00 | 0.00 | 69 | 1009.3 |
| 20260831114142 | 15 | 46 | 0.0 | 1.6 | 0.00 | 0.00 | 0.00 | 68 | 1009.3 |
| 20260831113642 | 15 | 34 | 0.0 | 0.0 | 0.00 | 0.00 | 0.00 | 68 | 1009.2 |
| 20260831113138 | 15 | 43 | 0.0 | 0.0 | 0.00 | 0.00 | 0.00 | 68 | 1009.5 |
| 20260831112636 | 15 | 45 | 0.0 | 0.0 | 0.00 | 0.00 | 0.00 | 68 | 1009.1 |
| 20260831112132 | 15 | 47 | 0.0 | 1.6 | 0.00 | 0.00 | 0.00 | 69 | 1009.4 |
| 20260831111628 | 15 | 30 | 1.6 | 1.6 | 0.00 | 0.00 | 0.00 | 70 | 1009.4 |
| 20260831111124 | 15 | 37 | 0.0 | 0.0 | 0.00 | 0.00 | 0.00 | 70 | 1009.5 |
| 20260831110619 | 15 | 31 | 0.0 | 0.0 | 0.00 | 0.00 | 0.00 | 70 | 1009.5 |
| 20260831110114 | 15 | 31 | 0.0 | 0.0 | 0.00 | 0.00 | 0.00 | 70 | 1009.3 |
| 20260831105613 | 16 | 32 | 0.0 | 0.0 | 0.00 | 0.00 | 0.00 | 69 | 1009.4 |
| 20260831105108 | 16 | 46 | 0.0 | 0.0 | 0.00 | 0.00 | 0.00 | 69 | 1009.5 |
| 20260831104604 | 16 | 22 | 0.0 | 0.0 | 0.00 | 0.00 | 0.00 | 68 | 1009.5 |
| 20260831104100 | 16 | 17 | 0.0 | 0.0 | 0.00 | 0.00 | 0.00 | 68 | 1009.5 |
| 20260831103554 | 16 | 20 | 0.0 | 0.0 | 0.00 | 0.00 | 0.00 | 66 | 1009.5 |
| 20260831103051 | 16 | 348 | 0.0 | 0.0 | 0.00 | 0.00 | 0.00 | 65 | 1009.5 |
| 20260831102544 | 16 | 287 | 0.0 | 1.6 | 0.00 | 0.00 | 0.00 | 66 | 1009.3 |
| 20260831102040 | 17 | 300 | 1.6 | 1.6 | 0.00 | 0.00 | 0.00 | 67 | 1009.3 |
| 20260831101534 | 16 | 307 | 0.0 | 1.6 | 0.00 | 0.00 | 0.00 | 66 | 1009.4 |
| 20260831101031 | 17 | 65 | 0.0 | 0.0 | 0.00 | 0.00 | 0.00 | 63 | 1009.4 |
| 20260831100526 | 17 | 61 | 0.0 | 0.0 | 0.00 | 0.00 | 0.00 | 62 | 1009.2 |
| 20260831100022 | 17 | 301 | 0.0 | 1.6 | 0.00 | 0.00 | 0.00 | 61 | 1009.3 |
| 20260831095520 | 17 | 297 | 1.6 | 1.6 | 0.00 | 0.00 | 0.00 | 63 | 1009.2 |
| 20260831095015 | 16 | 292 | 1.6 | 1.6 | 0.00 | 0.00 | 0.00 | 65 | 1009.2 |
| 20260831094512 | 16 | 298 | 1.6 | 1.6 | 0.00 | 0.00 | 0.00 | 64 | 1009.4 |
| 20260831094007 | 16 | 19 | 0.0 | 0.0 | 0.00 | 0.00 | 0.00 | 62 | 1009.1 |
| 20260831093507 | 16 | 19 | 0.0 | 0.0 | 0.00 | 0.00 | 0.00 | 63 | 1009.3 |
| 20260831093004 | 16 | 17 | 0.0 | 0.0 | 0.00 | 0.00 | 0.00 | 62 | 1009.2 |
| 20260831092459 | 16 | 17 | 0.0 | 0.0 | 0.00 | 0.00 | 0.00 | 62 | 1009.1 |
| 20260831091954 | 17 | 341 | 0.0 | 0.0 | 0.00 | 0.00 | 0.00 | 62 | 1009.2 |
| 20260831091449 | 17 | 32 | 0.0 | 0.0 | 0.00 | 0.00 | 0.00 | 62 | 1009.3 |
| 20260831090944 | 17 | 33 | 0.0 | 0.0 | 0.00 | 0.00 | 0.00 | 62 | 1009.4 |
| 20260831090440 | 17 | 329 | 0.0 | 0.0 | 0.00 | 0.00 | 0.00 | 60 | 1009.3 |
| 20260831085936 | 17 | 22 | 0.0 | 0.0 | 0.00 | 0.00 | 0.00 | 60 | 1009.2 |
| 20260831085431 | 17 | 21 | 0.0 | 0.0 | 0.00 | 0.00 | 0.00 | 59 | 1009.2 |
| 20260831084931 | 17 | 47 | 0.0 | 0.0 | 0.00 | 0.00 | 0.00 | 58 | 1009.1 |
| 20260831084427 | 17 | 47 | 0.0 | 0.0 | 0.00 | 0.00 | 0.00 | 58 | 1009.2 |
| 20260831083924 | 17 | 47 | 0.0 | 0.0 | 0.00 | 0.00 | 0.00 | 57 | 1009.1 |
| 20260831083419 | 18 | 47 | 0.0 | 0.0 | 0.00 | 0.00 | 0.00 | 58 | 1009.1 |
| 20260831082918 | 18 | 27 | 0.0 | 0.0 | 0.00 | 0.00 | 0.00 | 57 | 1009.3 |
| 20260831082418 | 18 | 20 | 0.0 | 0.0 | 0.00 | 0.00 | 0.00 | 57 | 1008.9 |
| 20260831081913 | 18 | 288 | 0.0 | 1.6 | 0.00 | 0.00 | 0.00 | 56 | 1009.1 |
| 20260831081409 | 18 | 24 | 0.0 | 0.0 | 0.00 | 0.00 | 0.00 | 56 | 1009.1 |
| 20260831080905 | 19 | 6 | 0.0 | 1.6 | 0.00 | 0.00 | 0.00 | 55 | 1009.2 |
| 20260831080400 | 19 | 264 | 0.0 | 1.6 | 0.00 | 0.00 | 0.00 | 54 | 1009.2 |
| 20260831075855 | 19 | 276 | 1.6 | 1.6 | 0.00 | 0.00 | 0.00 | 54 | 1009.4 |
| 20260831075350 | 19 | 266 | 6.4 | 8.0 | 0.00 | 0.00 | 0.00 | 53 | 1009.2 |
| 20260831074845 | 19 | 278 | 1.6 | 1.6 | 0.00 | 0.00 | 0.00 | 53 | 1009.2 |
| 20260831074344 | 20 | 262 | 1.6 | 1.6 | 0.00 | 0.00 | 0.00 | 52 | 1009.2 |
| 20260831073840 | 20 | 264 | 1.6 | 1.6 | 0.00 | 0.00 | 0.00 | 52 | 1009.3 |
| 20260831073339 | 20 | 236 | 1.6 | 1.6 | 0.00 | 0.00 | 0.00 | 51 | 1008.9 |
| 20260831072834 | 20 | 283 | 1.6 | 1.6 | 0.00 | 0.00 | 0.00 | 50 | 1009.3 |
| 20260831072330 | 20 | 241 | 3.2 | 3.2 | 0.00 | 0.00 | 0.00 | 50 | 1009.3 |
| 20260831071826 | 20 | 237 | 4.8 | 8.0 | 0.00 | 0.00 | 0.00 | 49 | 1009.4 |
| 20260831071324 | 20 | 252 | 4.8 | 6.4 | 0.00 | 0.00 | 0.00 | 49 | 1009.3 |
| 20260831070820 | 20 | 251 | 1.6 | 1.6 | 0.00 | 0.00 | 0.00 | 47 | 1009.4 |
| 20260831070319 | 21 | 252 | 3.2 | 3.2 | 0.00 | 0.00 | 0.00 | 47 | 1009.2 |
| 20260831065818 | 20 | 249 | 3.2 | 3.2 | 0.00 | 0.00 | 0.00 | 48 | 1009.4 |
| 20260831065316 | 20 | 264 | 3.2 | 3.2 | 0.00 | 0.00 | 0.00 | 49 | 1009.5 |
| 20260831064811 | 20 | 252 | 3.2 | 3.2 | 0.00 | 0.00 | 0.00 | 52 | 1009.4 |
| 20260831064306 | 21 | 294 | 0.0 | 1.6 | 0.00 | 0.00 | 0.00 | 51 | 1009.2 |
| 20260831063802 | 21 | 283 | 0.0 | 1.6 | 0.00 | 0.00 | 0.00 | 50 | 1009.3 |
| 20260831063258 | 21 | 273 | 1.6 | 1.6 | 0.00 | 0.00 | 0.00 | 49 | 1009.5 |
| 20260831062757 | 21 | 240 | 3.2 | 3.2 | 0.00 | 0.00 | 0.00 | 48 | 1009.2 |
| 20260831062252 | 21 | 269 | 1.6 | 1.6 | 0.00 | 0.00 | 0.00 | 49 | 1009.5 |
| 20260831061751 | 21 | 277 | 1.6 | 1.6 | 0.00 | 0.00 | 0.00 | 48 | 1009.4 |
| 20260831061246 | 21 | 281 | 0.0 | 0.0 | 0.00 | 0.00 | 0.00 | 48 | 1009.3 |
| 20260831060742 | 21 | 280 | 1.6 | 3.2 | 0.00 | 0.00 | 0.00 | 48 | 1009.3 |
| 20260831060242 | 21 | 248 | 3.2 | 3.2 | 0.00 | 0.00 | 0.00 | 47 | 1009.4 |
| 20260831055741 | 21 | 156 | 1.6 | 1.6 | 0.00 | 0.00 | 0.00 | 47 | 1009.3 |
| 20260831055241 | 21 | 286 | 3.2 | 6.4 | 0.00 | 0.00 | 0.00 | 47 | 1009.3 |
| 20260831054737 | 21 | 326 | 0.0 | 0.0 | 0.00 | 0.00 | 0.00 | 47 | 1009.4 |
| 20260831054232 | 21 | 228 | 1.6 | 1.6 | 0.00 | 0.00 | 0.00 | 46 | 1009.4 |
| 20260831053731 | 22 | 238 | 3.2 | 3.2 | 0.00 | 0.00 | 0.00 | 46 | 1009.3 |
| 20260831053229 | 22 | 253 | 4.8 | 6.4 | 0.00 | 0.00 | 0.00 | 45 | 1009.2 |
| 20260831052724 | 22 | 300 | 6.4 | 8.0 | 0.00 | 0.00 | 0.00 | 44 | 1009.2 |
| 20260831052223 | 22 | 263 | 4.8 | 6.4 | 0.00 | 0.00 | 0.00 | 46 | 1009.3 |
| 20260831051721 | 22 | 266 | 3.2 | 3.2 | 0.00 | 0.00 | 0.00 | 45 | 1009.1 |
| 20260831051220 | 22 | 46 | 0.0 | 0.0 | 0.00 | 0.00 | 0.00 | 45 | 1009.3 |
| 20260831050715 | 22 | 21 | 0.0 | 0.0 | 0.00 | 0.00 | 0.00 | 44 | 1009.1 |
| 20260831050214 | 22 | 30 | 0.0 | 0.0 | 0.00 | 0.00 | 0.00 | 44 | 1009.1 |
| 20260831045708 | 23 | 19 | 0.0 | 0.0 | 0.00 | 0.00 | 0.00 | 44 | 1009.2 |
| 20260831045203 | 23 | 28 | 0.0 | 0.0 | 0.00 | 0.00 | 0.00 | 43 | 1009.1 |
| 20260831044658 | 23 | 271 | 1.6 | 1.6 | 0.00 | 0.00 | 0.00 | 43 | 1009.3 |
| 20260831044153 | 23 | 26 | 0.0 | 0.0 | 0.00 | 0.00 | 0.00 | 41 | 1009.2 |
| 20260831043649 | 24 | 352 | 0.0 | 0.0 | 0.00 | 0.00 | 0.00 | 40 | 1009.2 |
| 20260831043144 | 24 | 308 | 0.0 | 1.6 | 0.00 | 0.00 | 0.00 | 38 | 1009.1 |
| 20260831042643 | 25 | 342 | 0.0 | 0.0 | 0.00 | 0.00 | 0.00 | 37 | 1009.0 |
| 20260831042138 | 25 | 26 | 0.0 | 0.0 | 0.00 | 0.00 | 0.00 | 39 | 1008.9 |
| 20260831041633 | 25 | 257 | 1.6 | 1.6 | 0.00 | 0.00 | 0.00 | 38 | 1008.7 |
| 20260831041132 | 26 | 254 | 0.0 | 0.0 | 0.00 | 0.00 | 0.00 | 37 | 1008.8 |
| 20260831040628 | 26 | 262 | 1.6 | 1.6 | 0.00 | 0.00 | 0.00 | 36 | 1008.9 |
| 20260831040121 | 25 | 290 | 4.8 | 8.0 | 0.00 | 0.00 | 0.00 | 37 | 1008.6 |
| 20260831035620 | 25 | 260 | 1.6 | 1.6 | 0.00 | 0.00 | 0.00 | 38 | 1008.5 |
| 20260831035114 | 25 | 346 | 0.0 | 0.0 | 0.00 | 0.00 | 0.00 | 40 | 1008.7 |
| 20260831034614 | 25 | 282 | 1.6 | 1.6 | 0.00 | 0.00 | 0.00 | 41 | 1008.6 |
| 20260831034109 | 25 | 3 | 0.0 | 0.0 | 0.00 | 0.00 | 0.00 | 41 | 1008.7 |
| 20260831033604 | 25 | 4 | 0.0 | 0.0 | 0.00 | 0.00 | 0.00 | 40 | 1008.6 |
| 20260831033059 | 25 | 48 | 0.0 | 0.0 | 0.00 | 0.00 | 0.00 | 40 | 1008.4 |
| 20260831032559 | 25 | 50 | 0.0 | 0.0 | 0.00 | 0.00 | 0.00 | 42 | 1008.6 |
| 20260831032055 | 25 | 50 | 0.0 | 0.0 | 0.00 | 0.00 | 0.00 | 42 | 1008.5 |
| 20260831031554 | 25 | 49 | 0.0 | 0.0 | 0.00 | 0.00 | 0.00 | 41 | 1008.2 |
| 20260831031053 | 26 | 34 | 0.0 | 0.0 | 0.00 | 0.00 | 0.00 | 39 | 1008.5 |
| 20260831030553 | 26 | 34 | 0.0 | 0.0 | 0.00 | 0.00 | 0.00 | 39 | 1008.3 |
| 20260831030052 | 26 | 55 | 0.0 | 0.0 | 0.00 | 0.00 | 0.00 | 39 | 1008.2 |
| 20260831025550 | 26 | 55 | 0.0 | 0.0 | 0.00 | 0.00 | 0.00 | 39 | 1008.3 |
| 20260831025046 | 26 | 55 | 0.0 | 0.0 | 0.00 | 0.00 | 0.00 | 39 | 1008.2 |
| 20260831024542 | 27 | 63 | 0.0 | 0.0 | 0.00 | 0.00 | 0.00 | 40 | 1008.1 |
| 20260831024040 | 27 | 68 | 0.0 | 0.0 | 0.00 | 0.00 | 0.00 | 40 | 1008.1 |
| 20260831023539 | 27 | 69 | 0.0 | 0.0 | 0.00 | 0.00 | 0.00 | 40 | 1008.2 |
| 20260831023033 | 28 | 128 | 0.0 | 0.0 | 0.00 | 0.00 | 0.00 | 38 | 1008.0 |
| 20260831022533 | 28 | 128 | 0.0 | 0.0 | 0.00 | 0.00 | 0.00 | 38 | 1008.0 |
| 20260831022028 | 28 | 128 | 0.0 | 0.0 | 0.00 | 0.00 | 0.00 | 36 | 1008.0 |
| 20260831021527 | 29 | 127 | 0.0 | 0.0 | 0.00 | 0.00 | 0.00 | 36 | 1008.0 |
| 20260831021023 | 30 | 32 | 0.0 | 0.0 | 0.00 | 0.00 | 0.00 | 33 | 1008.0 |
| 20260831020518 | 30 | 32 | 0.0 | 0.0 | 0.00 | 0.00 | 0.00 | 32 | 1008.0 |
| 20260831020013 | 30 | 32 | 0.0 | 0.0 | 0.00 | 0.00 | 0.00 | 32 | 1007.9 |
| 20260831015509 | 30 | 54 | 0.0 | 0.0 | 0.00 | 0.00 | 0.00 | 31 | 1008.0 |
| 20260831015004 | 30 | 191 | 0.0 | 0.0 | 0.00 | 0.00 | 0.00 | 32 | 1008.0 |
| 20260831014458 | 31 | 138 | 0.0 | 1.6 | 0.00 | 0.00 | 0.00 | 31 | 1007.8 |
| 20260831013954 | 32 | 205 | 1.6 | 1.6 | 0.00 | 0.00 | 0.00 | 28 | 1007.9 |
| 20260831013450 | 32 | 39 | 0.0 | 0.0 | 0.00 | 0.00 | 0.00 | 27 | 1008.0 |
| 20260831012949 | 32 | 44 | 0.0 | 0.0 | 0.00 | 0.00 | 0.00 | 27 | 1008.0 |
| 20260831012445 | 32 | 1 | 1.6 | 1.6 | 0.00 | 0.00 | 0.00 | 25 | 1008.0 |
| 20260831011944 | 32 | 26 | 0.0 | 0.0 | 0.00 | 0.00 | 0.00 | 27 | 1008.1 |
| 20260831011439 | 32 | 18 | 0.0 | 0.0 | 0.00 | 0.00 | 0.00 | 25 | 1008.3 |
| 20260831010936 | 33 | 260 | 0.0 | 1.6 | 0.00 | 0.00 | 0.00 | 24 | 1008.3 |
| 20260831010435 | 33 | 70 | 0.0 | 0.0 | 0.00 | 0.00 | 0.00 | 27 | 1008.0 |
| 20260831005931 | 33 | 27 | 0.0 | 0.0 | 0.00 | 0.00 | 0.00 | 26 | 1008.3 |
| 20260831005427 | 33 | 31 | 0.0 | 1.6 | 0.00 | 0.00 | 0.00 | 25 | 1008.2 |
| 20260831004926 | 33 | 38 | 0.0 | 1.6 | 0.00 | 0.00 | 0.00 | 24 | 1008.2 |
| 20260831004423 | 33 | 8 | 0.0 | 0.0 | 0.00 | 0.00 | 0.00 | 23 | 1008.3 |
| 20260831003918 | 34 | 323 | 0.0 | 0.0 | 0.00 | 0.00 | 0.00 | 23 | 1008.3 |
| 20260831003414 | 34 | 197 | 0.0 | 1.6 | 0.00 | 0.00 | 0.00 | 24 | 1008.4 |
| 20260831002914 | 34 | 86 | 0.0 | 0.0 | 0.00 | 0.00 | 0.00 | 24 | 1008.2 |
| 20260831002413 | 33 | 54 | 1.6 | 1.6 | 0.00 | 0.00 | 0.00 | 24 | 1008.5 |
| 20260831001908 | 34 | 47 | 0.0 | 0.0 | 0.00 | 0.00 | 0.00 | 25 | 1008.2 |
| 20260831001403 | 35 | 243 | 1.6 | 1.6 | 0.00 | 0.00 | 0.00 | 23 | 1008.4 |
| 20260831000900 | 34 | 245 | 1.6 | 1.6 | 0.00 | 0.00 | 0.00 | 23 | 1008.5 |
| 20260831000356 | 35 | 338 | 1.6 | 1.6 | 0.00 | 0.00 | 0.00 | 22 | 1008.5 |
| 20260830235854 | 35 | 348 | 1.6 | 1.6 | 0.00 | 0.00 | 0.00 | 22 | 1008.3 |
| 20260830235348 | 35 | 240 | 4.8 | 6.4 | 0.00 | 0.00 | 0.00 | 21 | 1008.3 |
| 20260830234844 | 34 | 14 | 0.0 | 0.0 | 0.00 | 0.00 | 0.00 | 19 | 1008.5 |
| 20260830234340 | 34 | 16 | 0.0 | 1.6 | 0.00 | 0.00 | 0.00 | 20 | 1008.4 |
| 20260830233835 | 34 | 261 | 4.8 | 6.4 | 0.00 | 0.00 | 0.00 | 20 | 1008.6 |
| 20260830233331 | 33 | 258 | 3.2 | 3.2 | 0.00 | 0.00 | 0.00 | 20 | 1008.5 |
| 20260830232826 | 34 | 260 | 4.8 | 6.4 | 0.00 | 0.00 | 0.00 | 21 | 1008.4 |
| 20260830232322 | 34 | 297 | 1.6 | 1.6 | 0.00 | 0.00 | 0.00 | 21 | 1008.7 |
| 20260830231819 | 34 | 316 | 0.0 | 1.6 | 0.00 | 0.00 | 0.00 | 22 | 1008.7 |
| 20260830231319 | 34 | 189 | 1.6 | 1.6 | 0.00 | 0.00 | 0.00 | 21 | 1008.6 |
| 20260830230813 | 34 | 327 | 1.6 | 3.2 | 0.00 | 0.00 | 0.00 | 20 | 1008.8 |
| 20260830230308 | 35 | 227 | 1.6 | 3.2 | 0.00 | 0.00 | 0.00 | 22 | 1008.7 |
| 20260830225808 | 34 | 264 | 0.0 | 0.0 | 0.00 | 0.00 | 0.00 | 20 | 1009.1 |
| 20260830225305 | 33 | 22 | 1.6 | 1.6 | 0.00 | 0.00 | 0.00 | 20 | 1008.9 |
| 20260830224802 | 34 | 292 | 1.6 | 1.6 | 0.00 | 0.00 | 0.00 | 19 | 1009.0 |
| 20260830224257 | 33 | 189 | 1.6 | 1.6 | 0.00 | 0.00 | 0.00 | 21 | 1009.0 |
| 20260830223754 | 34 | 94 | 0.0 | 1.6 | 0.00 | 0.00 | 0.00 | 22 | 1009.2 |
| 20260830223250 | 33 | 302 | 3.2 | 3.2 | 0.00 | 0.00 | 0.00 | 23 | 1009.3 |
| 20260830222744 | 32 | 228 | 3.2 | 3.2 | 0.00 | 0.00 | 0.00 | 22 | 1009.5 |
| 20260830222239 | 32 | 234 | 4.8 | 6.4 | 0.00 | 0.00 | 0.00 | 22 | 1009.4 |
| 20260830221734 | 33 | 267 | 3.2 | 3.2 | 0.00 | 0.00 | 0.00 | 21 | 1009.6 |
| 20260830221232 | 33 | 269 | 1.6 | 1.6 | 0.00 | 0.00 | 0.00 | 21 | 1009.4 |
| 20260830220727 | 33 | 249 | 1.6 | 1.6 | 0.00 | 0.00 | 0.00 | 20 | 1009.4 |
| 20260830220225 | 33 | 357 | 1.6 | 1.6 | 0.00 | 0.00 | 0.00 | 23 | 1009.9 |
| 20260830215724 | 33 | 343 | 0.0 | 1.6 | 0.00 | 0.00 | 0.00 | 22 | 1009.8 |
| 20260830215219 | 32 | 298 | 3.2 | 6.4 | 0.00 | 0.00 | 0.00 | 22 | 1009.8 |
| 20260830214714 | 33 | 41 | 1.6 | 3.2 | 0.00 | 0.00 | 0.00 | 21 | 1009.9 |
| 20260830214209 | 32 | 211 | 0.0 | 1.6 | 0.00 | 0.00 | 0.00 | 20 | 1010.1 |
| 20260830213708 | 31 | 248 | 4.8 | 6.4 | 0.00 | 0.00 | 0.00 | 21 | 1010.1 |
| 20260830213203 | 32 | 238 | 3.2 | 3.2 | 0.00 | 0.00 | 0.00 | 21 | 1010.3 |
| 20260830212659 | 32 | 313 | 1.6 | 1.6 | 0.00 | 0.00 | 0.00 | 21 | 1010.2 |
| 20260830212155 | 32 | 226 | 3.2 | 3.2 | 0.00 | 0.00 | 0.00 | 24 | 1010.2 |
| 20260830211654 | 32 | 243 | 4.8 | 8.0 | 0.00 | 0.00 | 0.00 | 24 | 1010.5 |
| 20260830211153 | 32 | 62 | 1.6 | 3.2 | 0.00 | 0.00 | 0.00 | 23 | 1010.2 |
| 20260830210649 | 32 | 237 | 8.0 | 11.3 | 0.00 | 0.00 | 0.00 | 23 | 1010.4 |
| 20260830210148 | 31 | 254 | 3.2 | 3.2 | 0.00 | 0.00 | 0.00 | 24 | 1010.5 |
| 20260830205646 | 31 | 268 | 3.2 | 6.4 | 0.00 | 0.00 | 0.00 | 24 | 1010.6 |
| 20260830205141 | 31 | 262 | 6.4 | 11.3 | 0.00 | 0.00 | 0.00 | 24 | 1010.5 |
| 20260830204641 | 31 | 304 | 1.6 | 1.6 | 0.00 | 0.00 | 0.00 | 25 | 1010.9 |
| 20260830204140 | 31 | 248 | 3.2 | 6.4 | 0.00 | 0.00 | 0.00 | 26 | 1010.8 |
| 20260830203636 | 31 | 326 | 1.6 | 3.2 | 0.00 | 0.00 | 0.00 | 25 | 1010.9 |
| 20260830203137 | 31 | 348 | 1.6 | 1.6 | 0.00 | 0.00 | 0.00 | 26 | 1010.8 |
| 20260830202636 | 30 | 239 | 4.8 | 6.4 | 0.00 | 0.00 | 0.00 | 27 | 1010.9 |
| 20260830202132 | 30 | 5 | 3.2 | 3.2 | 0.00 | 0.00 | 0.00 | 26 | 1010.6 |
| 20260830201631 | 30 | 244 | 3.2 | 3.2 | 0.00 | 0.00 | 0.00 | 27 | 1011.1 |
| 20260830201127 | 30 | 282 | 1.6 | 1.6 | 0.00 | 0.00 | 0.00 | 27 | 1011.0 |
| 20260830200622 | 30 | 276 | 1.6 | 1.6 | 0.00 | 0.00 | 0.00 | 28 | 1011.1 |
| 20260830200121 | 30 | 191 | 1.6 | 1.6 | 0.00 | 0.00 | 0.00 | 28 | 1011.1 |
| 20260830195617 | 30 | 349 | 1.6 | 3.2 | 0.00 | 0.00 | 0.00 | 27 | 1011.0 |
| 20260830195114 | 29 | 347 | 3.2 | 3.2 | 0.00 | 0.00 | 0.00 | 28 | 1011.0 |
| 20260830194609 | 30 | 276 | 3.2 | 3.2 | 0.00 | 0.00 | 0.00 | 27 | 1011.2 |
| 20260830194108 | 29 | 263 | 3.2 | 3.2 | 0.00 | 0.00 | 0.00 | 29 | 1011.3 |
| 20260830193603 | 29 | 349 | 1.6 | 1.6 | 0.00 | 0.00 | 0.00 | 28 | 1011.3 |
| 20260830193058 | 28 | 293 | 1.6 | 1.6 | 0.00 | 0.00 | 0.00 | 30 | 1011.4 |
| 20260830192553 | 28 | 35 | 1.6 | 1.6 | 0.00 | 0.00 | 0.00 | 29 | 1011.3 |
| 20260830192053 | 28 | 343 | 1.6 | 1.6 | 0.00 | 0.00 | 0.00 | 29 | 1011.4 |
| 20260830191548 | 27 | 305 | 3.2 | 3.2 | 0.00 | 0.00 | 0.00 | 30 | 1011.6 |
| 20260830191044 | 28 | 328 | 1.6 | 1.6 | 0.00 | 0.00 | 0.00 | 30 | 1011.7 |
| 20260830190539 | 28 | 241 | 1.6 | 3.2 | 0.00 | 0.00 | 0.00 | 31 | 1011.9 |
| 20260830190034 | 28 | 76 | 1.6 | 3.2 | 0.00 | 0.00 | 0.00 | 32 | 1011.8 |
| 20260830185528 | 28 | 58 | 1.6 | 1.6 | 0.00 | 0.00 | 0.00 | 30 | 1012.0 |
| 20260830185024 | 27 | 41 | 0.0 | 1.6 | 0.00 | 0.00 | 0.00 | 32 | 1012.0 |
| 20260830184522 | 27 | 295 | 1.6 | 3.2 | 0.00 | 0.00 | 0.00 | 31 | 1012.0 |
| 20260830184017 | 27 | 87 | 1.6 | 1.6 | 0.00 | 0.00 | 0.00 | 32 | 1012.2 |
| 20260830183517 | 27 | 255 | 6.4 | 8.0 | 0.00 | 0.00 | 0.00 | 32 | 1012.1 |
| 20260830183013 | 27 | 4 | 3.2 | 6.4 | 0.00 | 0.00 | 0.00 | 32 | 1012.2 |
| 20260830182508 | 27 | 306 | 1.6 | 1.6 | 0.00 | 0.00 | 0.00 | 33 | 1012.0 |
| 20260830182004 | 26 | 73 | 1.6 | 1.6 | 0.00 | 0.00 | 0.00 | 33 | 1012.0 |
| 20260830181500 | 26 | 257 | 3.2 | 3.2 | 0.00 | 0.00 | 0.00 | 34 | 1012.1 |
| 20260830180959 | 26 | 256 | 1.6 | 1.6 | 0.00 | 0.00 | 0.00 | 34 | 1012.1 |
| 20260830180454 | 26 | 243 | 3.2 | 3.2 | 0.00 | 0.00 | 0.00 | 38 | 1012.1 |
| 20260830175952 | 26 | 34 | 0.0 | 0.0 | 0.00 | 0.00 | 0.00 | 36 | 1012.1 |
| 20260830175447 | 25 | 160 | 0.0 | 1.6 | 0.00 | 0.00 | 0.00 | 37 | 1012.1 |
| 20260830174942 | 25 | 293 | 3.2 | 3.2 | 0.00 | 0.00 | 0.00 | 37 | 1012.1 |
| 20260830174438 | 25 | 269 | 4.8 | 6.4 | 0.00 | 0.00 | 0.00 | 38 | 1012.2 |
| 20260830173933 | 25 | 270 | 3.2 | 3.2 | 0.00 | 0.00 | 0.00 | 38 | 1012.0 |
| 20260830173429 | 24 | 234 | 4.8 | 6.4 | 0.00 | 0.00 | 0.00 | 37 | 1012.1 |
| 20260830172924 | 24 | 331 | 6.4 | 8.0 | 0.00 | 0.00 | 0.00 | 39 | 1012.0 |
| 20260830172421 | 25 | 243 | 1.6 | 3.2 | 0.00 | 0.00 | 0.00 | 39 | 1012.2 |
| 20260830171916 | 23 | 354 | 0.0 | 1.6 | 0.00 | 0.00 | 0.00 | 42 | 1012.3 |
| 20260830171411 | 23 | 213 | 3.2 | 3.2 | 0.00 | 0.00 | 0.00 | 42 | 1012.2 |
| 20260830170906 | 23 | 278 | 0.0 | 1.6 | 0.00 | 0.00 | 0.00 | 42 | 1012.2 |
| 20260830170405 | 23 | 250 | 3.2 | 3.2 | 0.00 | 0.00 | 0.00 | 43 | 1012.1 |
| 20260830165903 | 22 | 349 | 0.0 | 0.0 | 0.00 | 0.00 | 0.00 | 44 | 1011.9 |
| 20260830165400 | 22 | 241 | 1.6 | 1.6 | 0.00 | 0.00 | 0.00 | 42 | 1012.2 |
| 20260830164856 | 22 | 241 | 0.0 | 0.0 | 0.00 | 0.00 | 0.00 | 44 | 1012.1 |
| 20260830164352 | 21 | 243 | 0.0 | 1.6 | 0.00 | 0.00 | 0.00 | 45 | 1012.2 |
| 20260830163848 | 21 | 259 | 0.0 | 0.0 | 0.00 | 0.00 | 0.00 | 45 | 1012.2 |
| 20260830163343 | 21 | 251 | 0.0 | 1.6 | 0.00 | 0.00 | 0.00 | 45 | 1012.2 |
| 20260830162838 | 21 | 241 | 1.6 | 1.6 | 0.00 | 0.00 | 0.00 | 46 | 1012.1 |
| 20260830162334 | 21 | 270 | 1.6 | 1.6 | 0.00 | 0.00 | 0.00 | 47 | 1012.2 |
| 20260830161834 | 21 | 240 | 3.2 | 3.2 | 0.00 | 0.00 | 0.00 | 47 | 1012.0 |
| 20260830161333 | 21 | 230 | 1.6 | 3.2 | 0.00 | 0.00 | 0.00 | 47 | 1011.9 |
| 20260830160829 | 21 | 43 | 0.0 | 0.0 | 0.00 | 0.00 | 0.00 | 49 | 1012.1 |
| 20260830160324 | 21 | 69 | 0.0 | 0.0 | 0.00 | 0.00 | 0.00 | 47 | 1012.1 |
| 20260830155820 | 20 | 51 | 1.6 | 1.6 | 0.00 | 0.00 | 0.00 | 49 | 1011.9 |
| 20260830155317 | 20 | 47 | 1.6 | 1.6 | 0.00 | 0.00 | 0.00 | 51 | 1011.9 |
| 20260830154816 | 20 | 44 | 1.6 | 1.6 | 0.00 | 0.00 | 0.00 | 51 | 1011.6 |